{"data":{"norad_id":61888,"intl_designator":"2024-204Q","name":"STARLINK-32377","alt_names":[],"object_type":"PAYLOAD","status":"ACTIVE","operator":null,"country":"US","launch_date":"2024-11-09","launch_site_code":"AFWTR","launch_vehicle":null,"mission":null,"orbit_class":"UNKNOWN","rcs_meters":null,"size_class":null,"mass_kg":null,"dimensions":null,"purposes":["comms"],"wikipedia_slug":null,"has_3d_model":false,"image_url":null,"decayed_at":null,"tle_current":{"epoch":"2026-09-21T18:41:44.388672Z","epoch_age_seconds":78353,"freshness":"FRESH","line1":"1 61888U 24204Q   26264.77898598  .00000298  00000+0  19944-4 0  9993","line2":"2 61888  53.1592 291.7305 0000982  94.1949 265.9166 15.34388232105178","mean_motion":15.34388232,"eccentricity":9.82e-5,"inclination_deg":53.1592,"raan_deg":291.7305,"arg_perigee_deg":94.1949,"mean_anomaly_deg":265.9166,"bstar":1.9944e-5,"rev_number":10517,"period_min":93.848477847294,"perigee_km":462.0664434603,"apogee_km":463.40999135299,"semimajor_km":6840.8752174066,"source":"CELESTRAK","updated_at":"2026-09-22T09:00:49.447259Z"}}}